Time,TemperatureF,DewpointF,PressureIn,WindDirection,WindDirectionDegrees,WindSpeedMPH,WindSpeedGustMPH,Humidity,HourlyPrecipIn,Conditions,Clouds,dailyrainin,SoftwareType,DateUTC
2013-10-27 00:02:00,45.9,39.7,30.10,SE,135,0.0,0.0,79,0.00,,,0.00,meteohub,2013-10-27 05:02:00,
2013-10-27 00:07:00,45.9,39.4,30.11,SE,135,0.0,0.0,78,0.00,,,0.00,meteohub,2013-10-27 05:07:00,
2013-10-27 00:12:00,45.3,39.2,30.11,ESE,113,0.0,0.0,79,0.00,,,0.00,meteohub,2013-10-27 05:12:00,
2013-10-27 00:17:00,45.1,39.0,30.11,ESE,113,0.0,0.0,79,0.00,,,0.00,meteohub,2013-10-27 05:17:00,
2013-10-27 00:22:00,45.0,38.8,30.10,ESE,113,0.0,0.0,79,0.00,,,0.00,meteohub,2013-10-27 05:22:00,
2013-10-27 00:27:00,44.8,38.3,30.10,ESE,113,0.0,0.0,78,0.00,,,0.00,meteohub,2013-10-27 05:27:00,
2013-10-27 00:32:00,44.8,38.7,30.10,ESE,113,0.0,0.0,79,0.00,,,0.00,meteohub,2013-10-27 05:32:00,
2013-10-27 00:37:00,44.4,38.3,30.10,ESE,113,0.0,0.0,79,0.00,,,0.00,meteohub,2013-10-27 05:37:00,
2013-10-27 00:42:00,44.2,38.1,30.10,ESE,113,0.0,0.0,79,0.00,,,0.00,meteohub,2013-10-27 05:42:00,
2013-10-27 00:47:00,43.9,37.8,30.12,ESE,113,0.0,0.0,79,0.00,,,0.00,meteohub,2013-10-27 05:47:00,
2013-10-27 00:52:00,43.9,37.8,30.12,ESE,113,0.0,0.0,79,0.00,,,0.00,meteohub,2013-10-27 05:52:00,
2013-10-27 00:57:00,43.5,37.4,30.12,SE,135,0.0,0.0,79,0.00,,,0.00,meteohub,2013-10-27 05:57:00,
2013-10-27 01:02:00,43.3,37.2,30.11,ESE,113,0.0,0.0,79,0.00,,,0.00,meteohub,2013-10-27 06:02:00,
2013-10-27 01:07:00,43.3,37.2,30.11,ESE,113,0.0,0.0,79,0.00,,,0.00,meteohub,2013-10-27 06:07:00,
2013-10-27 01:12:00,42.8,36.7,30.11,ESE,113,0.0,0.0,79,0.00,,,0.00,meteohub,2013-10-27 06:12:00,
2013-10-27 01:17:00,42.8,36.7,30.11,ESE,113,0.0,0.0,79,0.00,,,0.00,meteohub,2013-10-27 06:17:00,
2013-10-27 01:22:00,42.4,36.7,30.11,SE,135,0.0,0.0,80,0.00,,,0.00,meteohub,2013-10-27 06:22:00,
2013-10-27 01:27:00,42.3,36.5,30.11,West,270,0.0,0.0,80,0.00,,,0.00,meteohub,2013-10-27 06:27:00,
2013-10-27 01:32:00,41.7,36.0,30.12,WSW,248,0.0,0.0,80,0.00,,,0.00,meteohub,2013-10-27 06:32:00,
2013-10-27 01:37:00,41.5,35.8,30.12,East,90,0.0,0.0,80,0.00,,,0.00,meteohub,2013-10-27 06:37:00,
2013-10-27 01:42:00,41.2,35.4,30.11,ESE,113,0.0,0.0,80,0.00,,,0.00,meteohub,2013-10-27 06:42:00,
2013-10-27 01:47:00,41.2,35.8,30.11,ESE,113,0.0,0.0,81,0.00,,,0.00,meteohub,2013-10-27 06:47:00,
2013-10-27 01:53:00,40.8,35.1,30.12,NE,45,0.0,0.0,80,0.00,,,0.00,meteohub,2013-10-27 06:53:00,
2013-10-27 01:58:00,40.6,35.2,30.12,ESE,113,0.0,0.0,81,0.00,,,0.00,meteohub,2013-10-27 06:58:00,
2013-10-27 02:03:00,40.3,34.9,30.11,ESE,113,0.0,0.0,81,0.00,,,0.00,meteohub,2013-10-27 07:03:00,
2013-10-27 02:08:00,40.1,34.7,30.11,ESE,113,0.0,0.0,81,0.00,,,0.00,meteohub,2013-10-27 07:08:00,
2013-10-27 02:13:00,39.9,34.5,30.11,ESE,113,0.0,0.0,81,0.00,,,0.00,meteohub,2013-10-27 07:13:00,
2013-10-27 02:18:00,39.9,34.9,30.11,ESE,113,0.0,0.0,82,0.00,,,0.00,meteohub,2013-10-27 07:18:00,
2013-10-27 02:23:00,39.9,34.9,30.10,ESE,113,0.0,0.0,82,0.00,,,0.00,meteohub,2013-10-27 07:23:00,
2013-10-27 02:28:00,39.7,34.7,30.10,ESE,113,0.0,0.0,82,0.00,,,0.00,meteohub,2013-10-27 07:28:00,
2013-10-27 02:33:00,39.6,34.5,30.11,ESE,113,0.0,0.0,82,0.00,,,0.00,meteohub,2013-10-27 07:33:00,
2013-10-27 02:38:00,39.7,34.7,30.10,SE,135,0.0,0.0,82,0.00,,,0.00,meteohub,2013-10-27 07:38:00,
2013-10-27 02:43:00,39.4,34.3,30.11,SE,135,0.0,0.0,82,0.00,,,0.00,meteohub,2013-10-27 07:43:00,
2013-10-27 02:49:00,39.2,34.2,30.11,SE,135,0.0,0.0,82,0.00,,,0.00,meteohub,2013-10-27 07:49:00,
2013-10-27 02:54:00,39.2,34.2,30.11,SE,135,0.0,0.0,82,0.00,,,0.00,meteohub,2013-10-27 07:54:00,
2013-10-27 02:59:00,39.2,34.5,30.11,ESE,113,0.0,0.0,83,0.00,,,0.00,meteohub,2013-10-27 07:59:00,
2013-10-27 03:04:00,39.0,34.3,30.10,West,270,0.0,0.0,83,0.00,,,0.00,meteohub,2013-10-27 08:04:00,
2013-10-27 03:09:00,39.0,34.3,30.10,WSW,248,0.0,0.0,83,0.00,,,0.00,meteohub,2013-10-27 08:09:00,
2013-10-27 03:14:00,39.0,34.3,30.10,West,270,0.0,0.0,83,0.00,,,0.00,meteohub,2013-10-27 08:14:00,
2013-10-27 03:19:00,38.7,33.6,30.11,West,270,0.0,0.0,82,0.00,,,0.00,meteohub,2013-10-27 08:19:00,
2013-10-27 03:24:00,38.7,33.6,30.12,SE,135,0.0,0.0,82,0.00,,,0.00,meteohub,2013-10-27 08:24:00,
2013-10-27 03:29:00,38.3,33.3,30.12,ESE,113,0.0,0.0,82,0.00,,,0.00,meteohub,2013-10-27 08:29:00,
2013-10-27 03:34:00,37.8,32.7,30.12,ESE,113,0.0,0.0,82,0.00,,,0.00,meteohub,2013-10-27 08:34:00,
2013-10-27 03:39:00,37.8,32.7,30.12,ESE,113,0.0,0.0,82,0.00,,,0.00,meteohub,2013-10-27 08:39:00,
2013-10-27 03:44:00,37.6,32.9,30.11,SSW,203,0.0,0.0,83,0.00,,,0.00,meteohub,2013-10-27 08:44:00,
2013-10-27 03:49:00,37.6,32.9,30.11,ESE,113,0.0,0.0,83,0.00,,,0.00,meteohub,2013-10-27 08:49:00,
2013-10-27 03:54:00,37.2,32.5,30.11,SE,135,0.0,0.0,83,0.00,,,0.00,meteohub,2013-10-27 08:54:00,
2013-10-27 03:59:00,37.2,32.5,30.11,SE,135,0.0,0.0,83,0.00,,,0.00,meteohub,2013-10-27 08:59:00,
2013-10-27 04:04:00,37.0,32.4,30.10,SE,135,0.0,0.0,83,0.00,,,0.00,meteohub,2013-10-27 09:04:00,
2013-10-27 04:09:00,36.9,32.2,30.10,ESE,113,0.0,0.0,83,0.00,,,0.00,meteohub,2013-10-27 09:09:00,
2013-10-27 04:14:00,36.9,32.2,30.10,ESE,113,0.0,0.0,83,0.00,,,0.00,meteohub,2013-10-27 09:14:00,
2013-10-27 04:19:00,36.5,32.2,30.11,ESE,113,0.0,0.0,84,0.00,,,0.00,meteohub,2013-10-27 09:19:00,
2013-10-27 04:24:00,36.3,32.0,30.11,West,270,0.0,0.0,84,0.00,,,0.00,meteohub,2013-10-27 09:24:00,
2013-10-27 04:29:00,36.3,32.0,30.11,SW,225,0.0,0.0,84,0.00,,,0.00,meteohub,2013-10-27 09:29:00,
2013-10-27 04:34:00,36.1,31.8,30.11,SW,225,0.0,0.0,84,0.00,,,0.00,meteohub,2013-10-27 09:34:00,
2013-10-27 04:39:00,36.1,31.8,30.11,SSW,203,0.0,0.0,84,0.00,,,0.00,meteohub,2013-10-27 09:39:00,
2013-10-27 04:44:00,35.8,31.5,30.11,SSW,203,0.0,0.0,84,0.00,,,0.00,meteohub,2013-10-27 09:44:00,
2013-10-27 04:49:00,35.6,31.3,30.12,SSW,203,0.0,0.0,84,0.00,,,0.00,meteohub,2013-10-27 09:49:00,
2013-10-27 04:54:00,35.8,31.5,30.11,SSW,203,0.0,0.0,84,0.00,,,0.00,meteohub,2013-10-27 09:54:00,
2013-10-27 04:59:00,35.4,31.1,30.12,SSW,203,0.0,0.0,84,0.00,,,0.00,meteohub,2013-10-27 09:59:00,
2013-10-27 05:04:00,35.4,31.3,30.11,SSW,203,0.0,0.0,85,0.00,,,0.00,meteohub,2013-10-27 10:04:00,
2013-10-27 05:09:00,35.4,31.3,30.11,SE,135,0.0,0.0,85,0.00,,,0.00,meteohub,2013-10-27 10:09:00,
2013-10-27 05:14:00,35.2,31.1,30.11,WSW,248,0.0,0.0,85,0.00,,,0.00,meteohub,2013-10-27 10:14:00,
2013-10-27 05:19:00,35.1,30.9,30.11,South,180,0.0,0.0,85,0.00,,,0.00,meteohub,2013-10-27 10:19:00,
2013-10-27 05:24:00,34.9,30.9,30.09,SSE,158,0.0,0.0,85,0.00,,,0.00,meteohub,2013-10-27 10:24:00,
2013-10-27 05:29:00,34.9,30.9,30.09,South,180,0.0,0.0,85,0.00,,,0.00,meteohub,2013-10-27 10:29:00,
2013-10-27 05:34:00,34.7,30.7,30.09,SE,135,0.0,0.0,85,0.00,,,0.00,meteohub,2013-10-27 10:34:00,
2013-10-27 05:39:00,34.5,30.6,30.09,SE,135,0.0,0.0,85,0.00,,,0.00,meteohub,2013-10-27 10:39:00,
2013-10-27 05:44:00,34.7,30.7,30.10,SE,135,0.0,0.0,85,0.00,,,0.00,meteohub,2013-10-27 10:44:00,
2013-10-27 05:50:00,34.3,30.4,30.10,SE,135,0.0,0.0,85,0.00,,,0.00,meteohub,2013-10-27 10:50:00,
2013-10-27 05:54:00,34.3,30.6,30.10,SE,135,0.0,0.0,86,0.00,,,0.00,meteohub,2013-10-27 10:54:00,
2013-10-27 06:00:00,34.2,30.2,30.10,ESE,113,0.0,0.0,85,0.00,,,0.00,meteohub,2013-10-27 11:00:00,
2013-10-27 06:05:00,34.2,30.2,30.10,NW,315,0.0,0.0,85,0.00,,,0.00,meteohub,2013-10-27 11:05:00,
2013-10-27 06:10:00,34.0,30.0,30.10,WNW,293,0.0,0.0,85,0.00,,,0.00,meteohub,2013-10-27 11:10:00,
2013-10-27 06:15:00,34.0,30.0,30.10,SE,135,0.0,0.0,85,0.00,,,0.00,meteohub,2013-10-27 11:15:00,
2013-10-27 06:20:00,34.0,30.0,30.10,ESE,113,0.0,0.0,85,0.00,,,0.00,meteohub,2013-10-27 11:20:00,
2013-10-27 06:25:00,33.6,29.8,30.11,ESE,113,0.0,0.0,86,0.00,,,0.00,meteohub,2013-10-27 11:25:00,
2013-10-27 06:30:00,33.8,30.0,30.11,ESE,113,0.0,0.0,86,0.00,,,0.00,meteohub,2013-10-27 11:30:00,
2013-10-27 06:35:00,33.6,29.8,30.11,ESE,113,0.0,0.0,86,0.00,,,0.00,meteohub,2013-10-27 11:35:00,
2013-10-27 06:40:00,33.6,29.8,30.11,SW,225,0.0,0.0,86,0.00,,,0.00,meteohub,2013-10-27 11:40:00,
2013-10-27 06:45:00,33.6,29.8,30.10,SSW,203,0.0,0.0,86,0.00,,,0.00,meteohub,2013-10-27 11:45:00,
2013-10-27 06:50:00,33.4,29.7,30.11,SE,135,0.0,0.0,86,0.00,,,0.00,meteohub,2013-10-27 11:50:00,
2013-10-27 06:55:00,33.4,29.7,30.11,SE,135,0.0,0.0,86,0.00,,,0.00,meteohub,2013-10-27 11:55:00,
2013-10-27 07:00:00,33.4,29.7,30.11,SE,135,0.0,0.0,86,0.00,,,0.00,meteohub,2013-10-27 12:00:00,
2013-10-27 07:05:00,33.3,29.5,30.09,South,180,0.0,0.0,86,0.00,,,0.00,meteohub,2013-10-27 12:05:00,
2013-10-27 07:10:00,33.1,29.3,30.09,South,180,0.0,0.0,86,0.00,,,0.00,meteohub,2013-10-27 12:10:00,
2013-10-27 07:15:00,33.3,29.5,30.09,SSE,158,0.0,0.0,86,0.00,,,0.00,meteohub,2013-10-27 12:15:00,
2013-10-27 07:20:00,32.9,29.1,30.09,SSE,158,0.0,0.0,86,0.00,,,0.00,meteohub,2013-10-27 12:20:00,
2013-10-27 07:25:00,32.9,29.1,30.09,SE,135,0.0,0.0,86,0.00,,,0.00,meteohub,2013-10-27 12:25:00,
2013-10-27 07:30:00,32.9,29.1,30.09,SE,135,0.0,0.0,86,0.00,,,0.00,meteohub,2013-10-27 12:30:00,
2013-10-27 07:32:00,32.7,29.3,30.09,SE,135,0.0,0.0,87,0.00,,,0.00,meteohub,2013-10-27 12:32:00,
2013-10-27 07:37:00,32.7,29.3,30.09,NW,315,0.0,0.0,87,0.00,,,0.00,meteohub,2013-10-27 12:37:00,
2013-10-27 07:42:00,32.7,29.3,30.09,NW,315,0.0,0.0,87,0.00,,,0.00,meteohub,2013-10-27 12:42:00,
2013-10-27 07:47:00,32.7,29.3,30.11,NW,315,0.0,0.0,87,0.00,,,0.00,meteohub,2013-10-27 12:47:00,
2013-10-27 07:52:00,32.7,29.3,30.11,NW,315,0.0,0.0,87,0.00,,,0.00,meteohub,2013-10-27 12:52:00,
2013-10-27 07:57:00,32.7,29.3,30.11,NW,315,0.0,0.0,87,0.00,,,0.00,meteohub,2013-10-27 12:57:00,
2013-10-27 08:02:00,32.5,29.1,30.11,NW,315,0.0,0.0,87,0.00,,,0.00,meteohub,2013-10-27 13:02:00,
2013-10-27 08:07:00,32.7,29.3,30.11,WNW,293,0.0,0.0,87,0.00,,,0.00,meteohub,2013-10-27 13:07:00,
2013-10-27 08:12:00,32.5,29.1,30.11,West,270,0.0,0.0,87,0.00,,,0.00,meteohub,2013-10-27 13:12:00,
2013-10-27 08:17:00,32.4,28.9,30.11,West,270,0.0,0.0,87,0.00,,,0.00,meteohub,2013-10-27 13:17:00,
2013-10-27 08:22:00,32.5,29.1,30.11,WNW,293,0.0,0.0,87,0.00,,,0.00,meteohub,2013-10-27 13:22:00,
2013-10-27 08:27:00,32.7,29.3,30.11,NW,315,0.0,0.0,87,0.00,,,0.00,meteohub,2013-10-27 13:27:00,
2013-10-27 08:32:00,32.9,29.5,30.11,WNW,293,0.0,0.0,87,0.00,,,0.00,meteohub,2013-10-27 13:32:00,
2013-10-27 08:37:00,33.3,29.8,30.11,West,270,0.0,0.0,87,0.00,,,0.00,meteohub,2013-10-27 13:37:00,
2013-10-27 08:42:00,33.3,30.0,30.11,NW,315,0.0,0.0,88,0.00,,,0.00,meteohub,2013-10-27 13:42:00,
2013-10-27 08:47:00,33.6,30.4,30.11,NW,315,0.0,0.0,88,0.00,,,0.00,meteohub,2013-10-27 13:47:00,
2013-10-27 08:52:00,34.3,31.1,30.11,NW,315,0.0,0.0,88,0.00,,,0.00,meteohub,2013-10-27 13:52:00,
2013-10-27 08:57:00,34.7,31.5,30.10,West,270,0.0,0.0,88,0.00,,,0.00,meteohub,2013-10-27 13:57:00,
2013-10-27 09:02:00,35.6,32.7,30.10,NW,315,0.0,0.0,89,0.00,,,0.00,meteohub,2013-10-27 14:02:00,
2013-10-27 09:07:00,35.8,32.9,30.10,NW,315,0.0,0.0,89,0.00,,,0.00,meteohub,2013-10-27 14:07:00,
2013-10-27 09:12:00,36.3,33.4,30.10,NW,315,0.0,0.0,89,0.00,,,0.00,meteohub,2013-10-27 14:12:00,
2013-10-27 09:17:00,36.9,34.0,30.10,NNW,338,0.0,0.0,89,0.00,,,0.00,meteohub,2013-10-27 14:17:00,
2013-10-27 09:22:00,37.4,34.5,30.10,NW,315,0.0,0.0,89,0.00,,,0.00,meteohub,2013-10-27 14:22:00,
2013-10-27 09:27:00,37.9,35.1,30.10,NW,315,0.0,0.0,89,0.00,,,0.00,meteohub,2013-10-27 14:27:00,
2013-10-27 09:32:00,38.7,35.8,30.10,SSW,203,0.0,0.0,89,0.00,,,0.00,meteohub,2013-10-27 14:32:00,
2013-10-27 09:37:00,39.4,36.5,30.10,NE,45,0.0,0.0,89,0.00,,,0.00,meteohub,2013-10-27 14:37:00,
2013-10-27 09:42:00,40.8,37.8,30.09,ENE,68,0.0,0.0,89,0.00,,,0.00,meteohub,2013-10-27 14:42:00,
2013-10-27 09:47:00,42.1,38.5,30.09,West,270,0.0,0.0,87,0.00,,,0.00,meteohub,2013-10-27 14:47:00,
2013-10-27 09:52:00,43.2,39.2,30.09,SE,135,0.0,0.0,86,0.00,,,0.00,meteohub,2013-10-27 14:52:00,
2013-10-27 09:57:00,44.1,39.6,30.08,SW,225,0.0,0.0,84,0.00,,,0.00,meteohub,2013-10-27 14:57:00,
2013-10-27 10:02:00,44.8,39.9,30.08,SW,225,0.0,0.0,83,0.00,,,0.00,meteohub,2013-10-27 15:02:00,
2013-10-27 10:07:00,45.7,39.2,30.09,SE,135,0.0,0.0,78,0.00,,,0.00,meteohub,2013-10-27 15:07:00,
2013-10-27 10:12:00,46.9,39.4,30.08,SE,135,0.0,0.0,75,0.00,,,0.00,meteohub,2013-10-27 15:12:00,
2013-10-27 10:17:00,47.5,39.2,30.08,ESE,113,0.0,0.0,73,0.00,,,0.00,meteohub,2013-10-27 15:17:00,
2013-10-27 10:22:00,48.2,38.8,30.10,ESE,113,4.0,0.0,70,0.00,,,0.00,meteohub,2013-10-27 15:22:00,
2013-10-27 10:27:00,48.7,39.0,30.10,SE,135,0.0,4.0,69,0.00,,,0.00,meteohub,2013-10-27 15:27:00,
2013-10-27 10:33:00,49.3,39.2,30.09,SE,135,0.0,4.0,68,0.00,,,0.00,meteohub,2013-10-27 15:33:00,
2013-10-27 10:37:00,50.0,39.6,30.09,SE,135,0.0,4.0,67,0.00,,,0.00,meteohub,2013-10-27 15:37:00,
2013-10-27 10:42:00,50.5,39.9,30.11,ESE,113,0.0,1.0,67,0.00,,,0.00,meteohub,2013-10-27 15:42:00,
2013-10-27 10:48:00,50.9,40.3,30.11,SW,225,0.0,0.0,67,0.00,,,0.00,meteohub,2013-10-27 15:48:00,
2013-10-27 10:53:00,51.1,40.1,30.11,ESE,113,1.0,0.0,66,0.00,,,0.00,meteohub,2013-10-27 15:53:00,
2013-10-27 10:58:00,51.4,39.7,30.11,ESE,113,2.0,2.0,64,0.00,,,0.00,meteohub,2013-10-27 15:58:00,
2013-10-27 11:03:00,52.2,40.3,30.11,ENE,68,2.0,2.0,64,0.00,,,0.00,meteohub,2013-10-27 16:03:00,
2013-10-27 11:08:00,52.2,40.3,30.11,ESE,113,2.0,2.0,64,0.00,,,0.00,meteohub,2013-10-27 16:08:00,
2013-10-27 11:13:00,52.5,40.6,30.11,SE,135,0.0,2.0,64,0.00,,,0.00,meteohub,2013-10-27 16:13:00,
2013-10-27 11:18:00,53.1,41.2,30.10,SE,135,0.0,2.0,64,0.00,,,0.00,meteohub,2013-10-27 16:18:00,
2013-10-27 11:23:00,53.4,41.5,30.10,SSE,158,0.0,2.0,64,0.00,,,0.00,meteohub,2013-10-27 16:23:00,
2013-10-27 11:28:00,53.4,41.2,30.10,ESE,113,2.0,2.0,63,0.00,,,0.00,meteohub,2013-10-27 16:28:00,
2013-10-27 11:33:00,53.8,41.5,30.10,ESE,113,0.0,2.0,63,0.00,,,0.00,meteohub,2013-10-27 16:33:00,
2013-10-27 11:38:00,54.5,42.1,30.10,SE,135,0.0,2.0,63,0.00,,,0.00,meteohub,2013-10-27 16:38:00,
2013-10-27 11:43:00,54.9,42.1,30.09,SE,135,0.0,2.0,62,0.00,,,0.00,meteohub,2013-10-27 16:43:00,
2013-10-27 11:48:00,55.0,42.6,30.09,SSE,158,0.0,0.0,63,0.00,,,0.00,meteohub,2013-10-27 16:48:00,
2013-10-27 11:53:00,55.6,42.3,30.09,ESE,113,2.0,0.0,61,0.00,,,0.00,meteohub,2013-10-27 16:53:00,
2013-10-27 11:58:00,55.6,42.3,30.09,SE,135,0.0,2.0,61,0.00,,,0.00,meteohub,2013-10-27 16:58:00,
2013-10-27 12:03:00,55.6,42.8,30.08,SW,225,0.0,2.0,62,0.00,,,0.00,meteohub,2013-10-27 17:03:00,
2013-10-27 12:08:00,55.6,42.8,30.08,SW,225,0.0,2.0,62,0.00,,,0.00,meteohub,2013-10-27 17:08:00,
2013-10-27 12:13:00,55.8,43.0,30.08,South,180,0.0,0.0,62,0.00,,,0.00,meteohub,2013-10-27 17:13:00,
2013-10-27 12:18:00,55.8,43.3,30.08,East,90,0.0,0.0,63,0.00,,,0.00,meteohub,2013-10-27 17:18:00,
2013-10-27 12:23:00,55.9,43.2,30.07,ESE,113,0.0,0.0,62,0.00,,,0.00,meteohub,2013-10-27 17:23:00,
2013-10-27 12:28:00,56.5,43.7,30.07,West,270,0.0,2.0,62,0.00,,,0.00,meteohub,2013-10-27 17:28:00,
2013-10-27 12:33:00,56.7,43.7,30.07,SE,135,0.0,2.0,62,0.00,,,0.00,meteohub,2013-10-27 17:33:00,
2013-10-27 12:38:00,57.0,43.3,30.07,ENE,68,0.0,2.0,60,0.00,,,0.00,meteohub,2013-10-27 17:38:00,
2013-10-27 12:43:00,57.2,43.9,30.06,WSW,248,0.0,2.0,61,0.00,,,0.00,meteohub,2013-10-27 17:43:00,
2013-10-27 12:48:00,57.2,43.9,30.06,SE,135,0.0,2.0,61,0.00,,,0.00,meteohub,2013-10-27 17:48:00,
2013-10-27 12:53:00,57.4,44.1,30.06,ESE,113,0.0,2.0,61,0.00,,,0.00,meteohub,2013-10-27 17:53:00,
2013-10-27 12:58:00,57.6,44.2,30.06,West,270,0.0,0.0,61,0.00,,,0.00,meteohub,2013-10-27 17:58:00,
2013-10-27 13:04:00,57.7,43.0,30.04,ESE,113,0.0,0.0,58,0.00,,,0.00,meteohub,2013-10-27 18:04:00,
2013-10-27 13:09:00,58.5,43.7,30.04,WSW,248,0.0,0.0,58,0.00,,,0.00,meteohub,2013-10-27 18:09:00,
2013-10-27 13:14:00,58.3,43.5,30.04,NW,315,0.0,0.0,58,0.00,,,0.00,meteohub,2013-10-27 18:14:00,
2013-10-27 13:19:00,58.6,43.9,30.04,WSW,248,0.0,0.0,58,0.00,,,0.00,meteohub,2013-10-27 18:19:00,
2013-10-27 13:24:00,58.6,43.9,30.04,South,180,0.0,0.0,58,0.00,,,0.00,meteohub,2013-10-27 18:24:00,
2013-10-27 13:29:00,58.6,43.0,30.04,SW,225,0.0,0.0,56,0.00,,,0.00,meteohub,2013-10-27 18:29:00,
2013-10-27 13:34:00,58.8,42.6,30.04,West,270,0.0,0.0,55,0.00,,,0.00,meteohub,2013-10-27 18:34:00,
2013-10-27 13:39:00,59.2,43.5,30.04,WSW,248,0.0,0.0,56,0.00,,,0.00,meteohub,2013-10-27 18:39:00,
2013-10-27 13:44:00,59.4,43.7,30.02,West,270,0.0,0.0,56,0.00,,,0.00,meteohub,2013-10-27 18:44:00,
2013-10-27 13:49:00,59.4,43.2,30.02,ESE,113,0.0,0.0,55,0.00,,,0.00,meteohub,2013-10-27 18:49:00,
2013-10-27 13:54:00,59.9,43.7,30.02,South,180,0.0,0.0,55,0.00,,,0.00,meteohub,2013-10-27 18:54:00,
2013-10-27 13:59:00,59.9,44.2,30.02,SW,225,0.0,0.0,56,0.00,,,0.00,meteohub,2013-10-27 18:59:00,
2013-10-27 14:04:00,60.1,43.9,30.01,WNW,293,0.0,0.0,55,0.00,,,0.00,meteohub,2013-10-27 19:04:00,
2013-10-27 14:09:00,60.6,44.4,30.01,SSW,203,0.0,0.0,55,0.00,,,0.00,meteohub,2013-10-27 19:09:00,
2013-10-27 14:14:00,60.8,44.6,30.01,WNW,293,0.0,0.0,55,0.00,,,0.00,meteohub,2013-10-27 19:14:00,
2013-10-27 14:19:00,61.0,43.7,30.01,SW,225,0.0,0.0,53,0.00,,,0.00,meteohub,2013-10-27 19:19:00,
2013-10-27 14:24:00,61.0,43.7,30.01,SW,225,0.0,0.0,53,0.00,,,0.00,meteohub,2013-10-27 19:24:00,
2013-10-27 14:29:00,61.2,43.3,30.01,WSW,248,0.0,0.0,52,0.00,,,0.00,meteohub,2013-10-27 19:29:00,
2013-10-27 14:34:00,61.3,43.5,30.01,WSW,248,0.0,0.0,52,0.00,,,0.00,meteohub,2013-10-27 19:34:00,
2013-10-27 14:39:00,61.7,43.9,30.01,NE,45,0.0,0.0,52,0.00,,,0.00,meteohub,2013-10-27 19:39:00,
2013-10-27 14:44:00,61.9,43.5,29.99,SW,225,0.0,0.0,51,0.00,,,0.00,meteohub,2013-10-27 19:44:00,
2013-10-27 14:49:00,62.4,44.1,29.99,West,270,0.0,0.0,51,0.00,,,0.00,meteohub,2013-10-27 19:49:00,
2013-10-27 14:54:00,62.2,43.9,29.99,NW,315,0.0,0.0,51,0.00,,,0.00,meteohub,2013-10-27 19:54:00,
2013-10-27 14:59:00,62.2,43.9,29.99,NNW,338,0.0,0.0,51,0.00,,,0.00,meteohub,2013-10-27 19:59:00,
2013-10-27 15:04:00,62.4,44.1,29.99,West,270,0.0,0.0,51,0.00,,,0.00,meteohub,2013-10-27 20:04:00,
2013-10-27 15:09:00,62.4,44.1,29.99,West,270,0.0,0.0,51,0.00,,,0.00,meteohub,2013-10-27 20:09:00,
2013-10-27 15:14:00,62.8,44.4,29.99,WNW,293,0.0,0.0,51,0.00,,,0.00,meteohub,2013-10-27 20:14:00,
2013-10-27 15:19:00,63.0,44.1,29.99,SW,225,0.0,0.0,50,0.00,,,0.00,meteohub,2013-10-27 20:19:00,
2013-10-27 15:24:00,63.1,44.2,29.99,West,270,0.0,0.0,50,0.00,,,0.00,meteohub,2013-10-27 20:24:00,
2013-10-27 15:29:00,63.5,44.6,29.99,NW,315,0.0,0.0,50,0.00,,,0.00,meteohub,2013-10-27 20:29:00,
2013-10-27 15:34:00,63.9,44.8,29.99,SW,225,0.0,0.0,50,0.00,,,0.00,meteohub,2013-10-27 20:34:00,
2013-10-27 15:39:00,63.9,44.2,29.99,NW,315,0.0,0.0,49,0.00,,,0.00,meteohub,2013-10-27 20:39:00,
2013-10-27 15:44:00,64.2,44.1,29.99,West,270,0.0,0.0,48,0.00,,,0.00,meteohub,2013-10-27 20:44:00,
2013-10-27 15:49:00,64.0,44.4,29.99,NW,315,0.0,0.0,49,0.00,,,0.00,meteohub,2013-10-27 20:49:00,
2013-10-27 15:54:00,64.2,44.6,29.99,WNW,293,0.0,0.0,49,0.00,,,0.00,meteohub,2013-10-27 20:54:00,
2013-10-27 15:59:00,64.4,44.2,29.99,WSW,248,0.0,0.0,48,0.00,,,0.00,meteohub,2013-10-27 20:59:00,
2013-10-27 16:04:00,64.4,44.2,29.99,SW,225,0.0,0.0,48,0.00,,,0.00,meteohub,2013-10-27 21:04:00,
2013-10-27 16:09:00,64.6,44.4,29.99,WSW,248,0.0,0.0,48,0.00,,,0.00,meteohub,2013-10-27 21:09:00,
2013-10-27 16:14:00,64.6,43.9,29.99,WNW,293,0.0,0.0,47,0.00,,,0.00,meteohub,2013-10-27 21:14:00,
2013-10-27 16:19:00,64.9,44.2,29.99,SSW,203,0.0,0.0,47,0.00,,,0.00,meteohub,2013-10-27 21:19:00,
2013-10-27 16:24:00,64.9,43.2,29.98,ESE,113,0.0,0.0,45,0.00,,,0.00,meteohub,2013-10-27 21:24:00,
2013-10-27 16:29:00,64.6,43.3,29.98,SSW,203,0.0,0.0,46,0.00,,,0.00,meteohub,2013-10-27 21:29:00,
2013-10-27 16:34:00,64.9,43.7,29.98,WSW,248,0.0,0.0,46,0.00,,,0.00,meteohub,2013-10-27 21:34:00,
2013-10-27 16:39:00,64.9,43.7,29.98,WNW,293,0.0,0.0,46,0.00,,,0.00,meteohub,2013-10-27 21:39:00,
2013-10-27 16:44:00,64.9,43.2,29.98,SE,135,0.0,0.0,45,0.00,,,0.00,meteohub,2013-10-27 21:44:00,
2013-10-27 16:49:00,64.9,43.2,29.98,WSW,248,0.0,0.0,45,0.00,,,0.00,meteohub,2013-10-27 21:49:00,
2013-10-27 16:54:00,64.9,43.2,29.98,South,180,0.0,0.0,45,0.00,,,0.00,meteohub,2013-10-27 21:54:00,
2013-10-27 16:59:00,64.9,43.2,29.98,West,270,0.0,0.0,45,0.00,,,0.00,meteohub,2013-10-27 21:59:00,
2013-10-27 17:04:00,65.1,43.3,29.98,WSW,248,0.0,0.0,45,0.00,,,0.00,meteohub,2013-10-27 22:04:00,
2013-10-27 17:09:00,65.1,43.3,29.98,South,180,0.0,0.0,45,0.00,,,0.00,meteohub,2013-10-27 22:09:00,
2013-10-27 17:14:00,65.1,43.3,29.98,South,180,0.0,0.0,45,0.00,,,0.00,meteohub,2013-10-27 22:14:00,
2013-10-27 17:19:00,65.1,42.6,29.98,SSW,203,0.0,0.0,44,0.00,,,0.00,meteohub,2013-10-27 22:19:00,
2013-10-27 17:24:00,64.9,43.2,29.97,SW,225,0.0,0.0,45,0.00,,,0.00,meteohub,2013-10-27 22:24:00,
2013-10-27 17:29:00,64.8,43.0,29.97,West,270,0.0,0.0,45,0.00,,,0.00,meteohub,2013-10-27 22:29:00,
2013-10-27 17:34:00,64.6,42.8,29.97,NNE,23,0.0,0.0,45,0.00,,,0.00,meteohub,2013-10-27 22:34:00,
2013-10-27 17:39:00,64.4,43.2,29.97,SSW,203,0.0,0.0,46,0.00,,,0.00,meteohub,2013-10-27 22:39:00,
2013-10-27 17:45:00,63.9,42.6,29.97,SW,225,0.0,0.0,46,0.00,,,0.00,meteohub,2013-10-27 22:45:00,
2013-10-27 17:50:00,63.5,43.0,29.97,South,180,0.0,0.0,47,0.00,,,0.00,meteohub,2013-10-27 22:50:00,
2013-10-27 17:55:00,62.8,42.3,29.97,SE,135,0.0,0.0,47,0.00,,,0.00,meteohub,2013-10-27 22:55:00,
2013-10-27 18:00:00,62.2,41.7,29.98,ESE,113,0.0,0.0,47,0.00,,,0.00,meteohub,2013-10-27 23:00:00,
2013-10-27 18:05:00,62.1,41.5,29.96,ESE,113,0.0,0.0,47,0.00,,,0.00,meteohub,2013-10-27 23:05:00,
2013-10-27 18:10:00,62.1,41.5,29.96,ESE,113,0.0,0.0,47,0.00,,,0.00,meteohub,2013-10-27 23:10:00,
2013-10-27 18:15:00,59.9,41.7,29.96,SE,135,0.0,0.0,51,0.00,,,0.00,meteohub,2013-10-27 23:15:00,
2013-10-27 18:20:00,59.5,41.4,29.96,ESE,113,0.0,0.0,51,0.00,,,0.00,meteohub,2013-10-27 23:20:00,
2013-10-27 18:25:00,58.6,41.0,29.94,ESE,113,0.0,0.0,52,0.00,,,0.00,meteohub,2013-10-27 23:25:00,
2013-10-27 18:30:00,57.7,40.6,29.94,NW,315,0.0,0.0,53,0.00,,,0.00,meteohub,2013-10-27 23:30:00,
2013-10-27 18:35:00,57.2,40.6,29.95,SE,135,0.0,0.0,54,0.00,,,0.00,meteohub,2013-10-27 23:35:00,
2013-10-27 18:40:00,56.8,40.8,29.95,SE,135,0.0,0.0,55,0.00,,,0.00,meteohub,2013-10-27 23:40:00,
2013-10-27 18:45:00,55.9,40.5,29.94,SE,135,0.0,0.0,56,0.00,,,0.00,meteohub,2013-10-27 23:45:00,
2013-10-27 18:50:00,55.8,40.8,29.94,East,90,0.0,0.0,57,0.00,,,0.00,meteohub,2013-10-27 23:50:00,
2013-10-27 18:55:00,54.9,40.3,29.95,SE,135,0.0,0.0,58,0.00,,,0.00,meteohub,2013-10-27 23:55:00,
2013-10-27 19:00:00,54.5,40.1,29.95,SE,135,0.0,0.0,58,0.00,,,0.00,meteohub,2013-10-28 00:00:00,
2013-10-27 19:05:00,53.8,39.7,29.96,SSE,158,0.0,0.0,59,0.00,,,0.00,meteohub,2013-10-28 00:05:00,
2013-10-27 19:10:00,53.4,39.9,29.96,SSE,158,0.0,0.0,60,0.00,,,0.00,meteohub,2013-10-28 00:10:00,
2013-10-27 19:15:00,52.9,39.7,29.96,SSE,158,0.0,0.0,61,0.00,,,0.00,meteohub,2013-10-28 00:15:00,
2013-10-27 19:20:00,52.2,39.6,29.96,SSE,158,0.0,0.0,62,0.00,,,0.00,meteohub,2013-10-28 00:20:00,
2013-10-27 19:25:00,52.0,39.4,29.97,SSW,203,0.0,0.0,62,0.00,,,0.00,meteohub,2013-10-28 00:25:00,
2013-10-27 19:30:00,51.4,38.8,29.97,SSE,158,0.0,0.0,62,0.00,,,0.00,meteohub,2013-10-28 00:30:00,
2013-10-27 19:35:00,50.9,38.8,29.97,SSE,158,0.0,0.0,63,0.00,,,0.00,meteohub,2013-10-28 00:35:00,
2013-10-27 19:40:00,50.4,38.7,29.97,SSE,158,0.0,0.0,64,0.00,,,0.00,meteohub,2013-10-28 00:40:00,
2013-10-27 19:45:00,49.8,38.5,29.97,SE,135,0.0,0.0,65,0.00,,,0.00,meteohub,2013-10-28 00:45:00,
2013-10-27 19:50:00,49.3,37.9,29.97,SSE,158,0.0,0.0,65,0.00,,,0.00,meteohub,2013-10-28 00:50:00,
2013-10-27 19:55:00,49.1,38.3,29.97,SSE,158,0.0,0.0,66,0.00,,,0.00,meteohub,2013-10-28 00:55:00,
2013-10-27 20:00:00,48.6,38.1,29.97,SE,135,0.0,0.0,67,0.00,,,0.00,meteohub,2013-10-28 01:00:00,
2013-10-27 20:05:00,48.2,38.1,29.99,SE,135,0.0,0.0,68,0.00,,,0.00,meteohub,2013-10-28 01:05:00,
2013-10-27 20:10:00,47.8,37.8,29.99,SE,135,0.0,0.0,68,0.00,,,0.00,meteohub,2013-10-28 01:10:00,
2013-10-27 20:15:00,47.7,37.9,29.99,SE,135,0.0,0.0,69,0.00,,,0.00,meteohub,2013-10-28 01:15:00,
2013-10-27 20:20:00,47.1,37.4,29.99,SW,225,0.0,0.0,69,0.00,,,0.00,meteohub,2013-10-28 01:20:00,
2013-10-27 20:25:00,46.6,37.0,29.98,ESE,113,0.0,0.0,69,0.00,,,0.00,meteohub,2013-10-28 01:25:00,
2013-10-27 20:30:00,46.0,36.9,29.99,ESE,113,0.0,0.0,70,0.00,,,0.00,meteohub,2013-10-28 01:30:00,
2013-10-27 20:35:00,45.9,37.0,29.99,ESE,113,0.0,0.0,71,0.00,,,0.00,meteohub,2013-10-28 01:35:00,
2013-10-27 20:40:00,45.7,36.9,29.99,ESE,113,0.0,0.0,71,0.00,,,0.00,meteohub,2013-10-28 01:40:00,
2013-10-27 20:46:00,45.5,37.0,29.99,ESE,113,0.0,0.0,72,0.00,,,0.00,meteohub,2013-10-28 01:46:00,
2013-10-27 20:51:00,45.1,36.7,29.99,SE,135,0.0,0.0,72,0.00,,,0.00,meteohub,2013-10-28 01:51:00,
2013-10-27 20:56:00,45.0,36.9,29.99,SE,135,0.0,0.0,73,0.00,,,0.00,meteohub,2013-10-28 01:56:00,
2013-10-27 21:01:00,44.6,36.5,29.99,SE,135,0.0,0.0,73,0.00,,,0.00,meteohub,2013-10-28 02:01:00,
2013-10-27 21:06:00,44.6,36.5,30.00,SE,135,0.0,0.0,73,0.00,,,0.00,meteohub,2013-10-28 02:06:00,
2013-10-27 21:11:00,44.4,36.7,30.00,East,90,0.0,0.0,74,0.00,,,0.00,meteohub,2013-10-28 02:11:00,
2013-10-27 21:16:00,44.2,36.9,30.00,ESE,113,0.0,0.0,75,0.00,,,0.00,meteohub,2013-10-28 02:16:00,
2013-10-27 21:21:00,44.1,36.7,30.00,East,90,0.0,0.0,75,0.00,,,0.00,meteohub,2013-10-28 02:21:00,
2013-10-27 21:26:00,43.9,36.5,30.00,ESE,113,0.0,0.0,75,0.00,,,0.00,meteohub,2013-10-28 02:26:00,
2013-10-27 21:31:00,43.5,36.1,30.00,SE,135,0.0,0.0,75,0.00,,,0.00,meteohub,2013-10-28 02:31:00,
2013-10-27 21:36:00,43.5,36.5,30.00,WSW,248,0.0,0.0,76,0.00,,,0.00,meteohub,2013-10-28 02:36:00,
2013-10-27 21:41:00,43.3,36.3,30.00,SSE,158,0.0,0.0,76,0.00,,,0.00,meteohub,2013-10-28 02:41:00,
2013-10-27 21:46:00,43.0,36.0,30.01,SW,225,0.0,0.0,76,0.00,,,0.00,meteohub,2013-10-28 02:46:00,
2013-10-27 21:51:00,42.8,35.8,30.01,SW,225,0.0,0.0,76,0.00,,,0.00,meteohub,2013-10-28 02:51:00,
2013-10-27 21:56:00,42.6,36.0,30.01,SW,225,0.0,0.0,77,0.00,,,0.00,meteohub,2013-10-28 02:56:00,
2013-10-27 22:01:00,42.1,35.4,30.01,ESE,113,0.0,0.0,77,0.00,,,0.00,meteohub,2013-10-28 03:01:00,
2013-10-27 22:06:00,41.9,35.2,30.02,ESE,113,0.0,0.0,77,0.00,,,0.00,meteohub,2013-10-28 03:06:00,
2013-10-27 22:11:00,41.7,35.4,30.02,ESE,113,0.0,0.0,78,0.00,,,0.00,meteohub,2013-10-28 03:11:00,
2013-10-27 22:16:00,41.9,35.6,30.02,ESE,113,0.0,0.0,78,0.00,,,0.00,meteohub,2013-10-28 03:16:00,
2013-10-27 22:21:00,41.7,35.4,30.02,ESE,113,0.0,0.0,78,0.00,,,0.00,meteohub,2013-10-28 03:21:00,
2013-10-27 22:26:00,41.5,35.6,30.03,ESE,113,0.0,0.0,79,0.00,,,0.00,meteohub,2013-10-28 03:26:00,
2013-10-27 22:31:00,41.5,35.6,30.03,ESE,113,0.0,0.0,79,0.00,,,0.00,meteohub,2013-10-28 03:31:00,
2013-10-27 22:36:00,41.5,35.6,30.03,ESE,113,0.0,0.0,79,0.00,,,0.00,meteohub,2013-10-28 03:36:00,
2013-10-27 22:41:00,41.4,35.4,30.03,ESE,113,0.0,0.0,79,0.00,,,0.00,meteohub,2013-10-28 03:41:00,
2013-10-27 22:46:00,41.2,35.2,30.03,ESE,113,0.0,0.0,79,0.00,,,0.00,meteohub,2013-10-28 03:46:00,
2013-10-27 22:51:00,41.0,35.1,30.03,ESE,113,0.0,0.0,79,0.00,,,0.00,meteohub,2013-10-28 03:51:00,
2013-10-27 22:56:00,40.8,35.1,30.03,SW,225,0.0,0.0,80,0.00,,,0.00,meteohub,2013-10-28 03:56:00,
2013-10-27 23:01:00,40.8,35.1,30.03,ESE,113,0.0,0.0,80,0.00,,,0.00,meteohub,2013-10-28 04:01:00,
2013-10-27 23:06:00,40.5,34.7,30.02,SSE,158,0.0,0.0,80,0.00,,,0.00,meteohub,2013-10-28 04:06:00,
2013-10-27 23:11:00,40.3,34.5,30.03,WSW,248,0.0,0.0,80,0.00,,,0.00,meteohub,2013-10-28 04:11:00,
2013-10-27 23:16:00,40.3,34.5,30.03,ESE,113,0.0,0.0,80,0.00,,,0.00,meteohub,2013-10-28 04:16:00,
2013-10-27 23:21:00,40.1,34.5,30.03,ESE,113,0.0,0.0,80,0.00,,,0.00,meteohub,2013-10-28 04:21:00,
2013-10-27 23:26:00,39.9,34.3,30.03,ESE,113,0.0,0.0,80,0.00,,,0.00,meteohub,2013-10-28 04:26:00,
2013-10-27 23:31:00,40.1,34.7,30.03,ESE,113,0.0,0.0,81,0.00,,,0.00,meteohub,2013-10-28 04:31:00,
2013-10-27 23:36:00,39.9,34.5,30.03,WSW,248,0.0,0.0,81,0.00,,,0.00,meteohub,2013-10-28 04:36:00,
2013-10-27 23:42:00,39.7,34.3,30.03,SSE,158,0.0,0.0,81,0.00,,,0.00,meteohub,2013-10-28 04:42:00,
2013-10-27 23:47:00,39.6,34.2,30.03,SSE,158,0.0,0.0,81,0.00,,,0.00,meteohub,2013-10-28 04:47:00,
2013-10-27 23:52:00,39.7,34.3,30.03,SSE,158,0.0,0.0,81,0.00,,,0.00,meteohub,2013-10-28 04:52:00,
2013-10-27 23:57:00,39.4,34.0,30.04,SE,135,0.0,0.0,81,0.00,,,0.00,meteohub,2013-10-28 04:57:00,